Simultaneous Nadir Overpasses (SNOs) Predictions

Prediction of SNOs between FY3D and AQUA Satellite Orbit:

Table of predicted SNOs for the next 14.0 days since TLE Epoch: 1/16/2021
Index Date (FY3D) Time (FY3D) Lat,Lon (FY3D) SZA (FY3D ) Date (AQUA) Time (AQUA) Lat,Lon (AQUA) SZA (AQUA ) Distance(km) Time Diff (sec)
1 01/16/2021 06:17:21 -47.11, 118.65 35.92 01/16/2021 06:17:40 -47.19, 118.36 35.85 23.05 19
2 01/16/2021 07:07:43 48.26, -73.55 143.18 01/16/2021 07:06:45 48.26, -73.56 143.32 1.02 58
3 01/18/2021 22:33:34 -47.57,-125.24 36.61 01/18/2021 22:34:01 -47.63,-125.58 36.51 26.66 27
4 01/18/2021 23:24:43 46.01, 41.45 144.61 01/18/2021 23:23:51 46.02, 41.46 144.72 2.03 52
5 01/21/2021 14:49:47 -47.97, -9.14 37.31 01/21/2021 14:50:21 -48.06, -9.53 37.23 30.34 34
6 01/21/2021 15:40:58 46.29, 157.49 144.02 01/21/2021 15:40:14 46.28, 157.44 144.16 4.39 44
7 01/24/2021 07:06:00 -48.42, 106.98 38.12 01/24/2021 07:06:42 -48.48, 106.52 38.01 33.96 42
8 01/24/2021 07:57:23 46.05, -86.67 143.79 01/24/2021 07:56:46 46.05, -86.76 143.92 6.82 37
9 01/26/2021 23:22:14 -48.82,-136.93 38.94 01/26/2021 23:23:03 -48.90,-137.42 38.84 37.33 49
10 01/27/2021 00:13:44 46.04, 29.25 143.32 01/27/2021 00:13:14 46.05, 29.13 143.45 9.86 30
11 01/27/2021 00:42:20 -54.11, 0.69 107.28 01/27/2021 00:41:08 -54.37, 2.03 106.93 91.37 72
12 01/29/2021 15:38:27 -49.27, -20.80 39.86 01/29/2021 15:39:23 -49.37, -21.34 39.77 40.75 56
13 01/29/2021 16:30:05 46.02, 145.18 142.81 01/29/2021 16:29:42 46.05, 145.01 142.93 13.01 23



Historial Predications of SNOs between FY3D and AQUA
